Surface/Precipitation History
12/08/2016 02:36  to  12/9/2016 02:36
Change End Date:
Date/Time
(MST)
Sf
Temp Chem Water Layer Surface Precipitation
Sfc Pvt Sub Frz Factor Pct Dpth DpthThk IcePct Cond Salin FI Type Intens Accum Rate
12/09/2016 02:27 Ice Watch 11.1F - 11F - 45 - - - - 1 mhos 341 - None None - -
12/09/2016 02:26 Ice Watch 10.9F - 11F - 45 - - - - 1 mhos 345 - None None - -
12/09/2016 02:16 Ice Watch 10.9F - 11F - 45 - - - - 1 mhos 346 - None None - -
12/09/2016 02:12 Ice Watch 10.9F - 11F - 45 - - - - 1 mhos 347 - None None - -
12/09/2016 02:06 Ice Watch 10.8F - 11F - 45 - - - - 1 mhos 351 - None None - -
12/09/2016 01:57 Ice Watch 10.9F - 11F - 45 - - - - 1 mhos 346 - None None - -
12/09/2016 01:56 Ice Watch 10.9F - 11F - 45 - - - - 1 mhos 343 - None None - -
12/09/2016 01:46 Ice Watch 10.9F - 12F - 45 - - - - 1 mhos 345 - None None - -
12/09/2016 01:42 Ice Watch 10.9F - 12F - 45 - - - - 1 mhos 347 - None None - -
12/09/2016 01:36 Ice Watch 10.9F - 12F - 45 - - - - 1 mhos 341 - None None - -
12/09/2016 01:27 Ice Watch 11.1F - 12F - 45 - - - - 1 mhos 337 - None None - -
12/09/2016 01:26 Ice Watch 11.1F - 12F - 45 - - - - 1 mhos 338 - None None - -
12/09/2016 01:16 Ice Watch 11.1F - 12F - 45 - - - - 1 mhos 337 - None None - -
12/09/2016 01:12 Ice Watch 11.1F - 12F - 45 - - - - 1 mhos 337 - None None - -
12/09/2016 01:05 Ice Watch 11.1F - 12F - 45 - - - - 1 mhos 337 - None None - -
Date/Time
(MST)
Sf
Temp Chem Water Layer Surface Precipitation
Sfc Pvt Sub Frz Factor Pct Dpth DpthThk IcePct Cond Salin FI Type Intens Accum Rate
12/09/2016 00:57 Ice Watch 10.9F - 12F - 45 - - - - 1 mhos 340 - None None - -
12/09/2016 00:55 Ice Watch 10.9F - 12F - 45 - - - - 1 mhos 340 - None None - -
12/09/2016 00:45 Ice Watch 10.9F - 12F - 45 - - - - 1 mhos 342 - None None - -
12/09/2016 00:42 Ice Watch 10.9F - 12F - 45 - - - - 1 mhos 341 - None None - -
12/09/2016 00:35 Ice Watch 10.9F - 12F - 45 - - - - 1 mhos 340 - None None - -
12/09/2016 00:27 Ice Watch 10.8F - 12F - 45 - - - - 1 mhos 343 - None None - -
12/09/2016 00:25 Ice Watch 10.8F - 12F - 45 - - - - 1 mhos 344 - None None - -
12/09/2016 00:15 Ice Watch 10.6F - 12F - 40 - - - - 1 mhos 344 - None None - -
12/09/2016 00:12 Ice Watch 10.4F - 12F - 40 - - - - 1 mhos 350 - None None - -
12/09/2016 00:05 Ice Watch 10.2F - 12F - 40 - - - - 1 mhos 353 - None None - -
12/08/2016 23:57 Ice Watch 10.0F - 12F - 40 - - - - 1 mhos 355 - None None - -
12/08/2016 23:55 Ice Watch 10.0F - 12F - 40 - - - - 1 mhos 355 - None None - -
12/08/2016 23:45 Ice Watch 10.0F - 12F - 40 - - - - 1 mhos 358 - None None - -
12/08/2016 23:42 Ice Watch 9.9F - 12F - 40 - - - - 1 mhos 362 - None None - -
12/08/2016 23:35 Ice Watch 9.7F - 12F - 40 - - - - 1 mhos 364 - None None - -
Date/Time
(MST)
Sf
Temp Chem Water Layer Surface Precipitation
Sfc Pvt Sub Frz Factor Pct Dpth DpthThk IcePct Cond Salin FI Type Intens Accum Rate
12/08/2016 23:27 Ice Watch 9.3F - 12F - 40 - - - - 1 mhos 370 - None None - -
12/08/2016 23:25 Ice Watch 9.3F - 12F - 35 - - - - 1 mhos 368 - None None - -
12/08/2016 23:15 Ice Watch 9.3F - 12F - 35 - - - - 1 mhos 370 - None None - -
12/08/2016 23:12 Ice Watch 9.1F - 12F - 35 - - - - 1 mhos 373 - None None - -
12/08/2016 23:05 Ice Watch 8.6F - 12F - 35 - - - - 1 mhos 386 - None None - -
12/08/2016 22:57 Ice Watch 8.6F - 12F - 35 - - - - 1 mhos 386 - None None - -
12/08/2016 22:55 Ice Watch 8.6F - 12F - 35 - - - - 1 mhos 385 - None None - -
12/08/2016 22:45 Ice Watch 8.4F - 11F - 35 - - - - 1 mhos 389 - None None - -
12/08/2016 22:42 Ice Watch 8.4F - 11F - 35 - - - - 1 mhos 388 - None None - -
12/08/2016 22:35 Ice Watch 8.4F - 11F - 35 - - - - 1 mhos 388 - None None - -
12/08/2016 22:27 Ice Watch 8.6F - 11F - 35 - - - - 1 mhos 387 - None None - -
12/08/2016 22:24 Ice Watch 9.0F - 11F - 35 - - - - 1 mhos 380 - None None - -
12/08/2016 22:14 Ice Watch 9.1F - 11F - 35 - - - - 1 mhos 375 - None None - -
12/08/2016 22:12 Ice Watch 9.0F - 11F - 35 - - - - 1 mhos 378 - None None - -
12/08/2016 22:04 Ice Watch 8.8F - 11F - 35 - - - - 1 mhos 384 - None None - -
Date/Time
(MST)
Sf
Temp Chem Water Layer Surface Precipitation
Sfc Pvt Sub Frz Factor Pct Dpth DpthThk IcePct Cond Salin FI Type Intens Accum Rate
12/08/2016 21:57 Ice Watch 9.1F - 11F - 35 - - - - 1 mhos 375 - None None - -
12/08/2016 21:54 Ice Watch 9.1F - 11F - 35 - - - - 1 mhos 375 - None None - -
12/08/2016 21:44 Ice Watch 9.5F - 11F - 35 - - - - 1 mhos 366 - None None - -
12/08/2016 21:42 Ice Watch 9.7F - 12F - 35 - - - - 1 mhos 364 - None None - -
12/08/2016 21:34 Ice Watch 10.2F - 12F - 35 - - - - 1 mhos 349 - None None - -
12/08/2016 21:27 Ice Watch 10.0F - 12F - 40 - - - - 1 mhos 350 - None None - -
12/08/2016 21:24 Ice Watch 10.0F - 12F - 40 - - - - 1 mhos 350 - None None - -
12/08/2016 21:14 Ice Watch 9.5F - 12F - 35 - - - - 1 mhos 363 - None None - -
12/08/2016 21:12 Ice Watch 9.5F - 12F - 35 - - - - 1 mhos 363 - None None - -
12/08/2016 21:04 Ice Watch 9.9F - 12F - 35 - - - - 1 mhos 354 - None None - -
12/08/2016 20:57 Ice Watch 9.9F - 12F - 35 - - - - 1 mhos 351 - None None - -
12/08/2016 20:54 Ice Watch 10.0F - 12F - 35 - - - - 1 mhos 347 - None None - -
12/08/2016 20:44 Ice Watch 10.2F - 12F - 35 - - - - 1 mhos 337 - None None - -
12/08/2016 20:42 Ice Watch 10.4F - 12F - 35 - - - - 1 mhos 330 - None None - -
12/08/2016 20:34 Ice Watch 10.6F - 12F - 35 - - - - 1 mhos 321 - None None - -
Date/Time
(MST)
Sf
Temp Chem Water Layer Surface Precipitation
Sfc Pvt Sub Frz Factor Pct Dpth DpthThk IcePct Cond Salin FI Type Intens Accum Rate
12/08/2016 20:27 Ice Watch 10.4F - 12F - 35 - - - - 1 mhos 312 - None None - -
12/08/2016 20:24 Ice Watch 10.2F - 12F - 35 - - - - 1 mhos 308 - None None - -
12/08/2016 20:14 Ice Watch 10.0F - 12F - 30 - - - - 0 mhos 260 - None None - -
12/08/2016 20:12 Ice Watch 10.0F - 12F - 30 - - - - 0 mhos 241 - None None - -
12/08/2016 20:04 Ice Watch 9.9F - 12F - 25 - - - - 0 mhos 167 - None None - -
12/08/2016 19:57 Ice Watch 9.9F - 12F - 15 - - - - 0 mhos 84 - None None - -
12/08/2016 19:54 Ice Watch 9.9F - 12F - 5 - - - - 0 mhos 35 - None None - -
12/08/2016 19:43 Ice Watch 10.0F - 12F - 5 - - - - 0 mhos 2 - None None - -
12/08/2016 19:42 Ice Watch 10.0F - 12F - 5 - - - - 0 mhos 2 - None None - -
12/08/2016 19:33 Ice Watch 9.9F - 12F - 5 - - - - 0 mhos 2 - None None - -
12/08/2016 19:27 Ice Watch 9.7F - 12F - 5 - - - - 0 mhos 2 - None None - -
12/08/2016 19:23 Ice Watch 9.7F - 12F - 5 - - - - 0 mhos 2 - None None - -
12/08/2016 19:13 Ice Watch 9.7F - 12F - 5 - - - - 0 mhos 2 - None None - -
12/08/2016 19:12 Ice Watch 9.7F - 12F - 5 - - - - 0 mhos 2 - None None - -
12/08/2016 19:03 Ice Watch 9.7F - 12F - 5 - - - - 0 mhos 2 - None None - -
Date/Time
(MST)
Sf
Temp Chem Water Layer Surface Precipitation
Sfc Pvt Sub Frz Factor Pct Dpth DpthThk IcePct Cond Salin FI Type Intens Accum Rate
12/08/2016 18:57 Ice Watch 9.7F - 12F - 5 - - - - 0 mhos 2 - None None - -
12/08/2016 18:53 Ice Watch 9.5F - 12F - 5 - - - - 0 mhos 2 - None None - -
12/08/2016 18:43 Ice Watch 9.5F - 12F - 5 - - - - 0 mhos 2 - None None - -
12/08/2016 18:42 Ice Watch 9.5F - 12F - 5 - - - - 0 mhos 2 - None None - -
12/08/2016 18:33 Ice Watch 9.3F - 12F - 5 - - - - 0 mhos 2 - None None - -
12/08/2016 18:27 Ice Watch 9.5F - 12F - 5 - - - - 0 mhos 2 - None None - -
12/08/2016 18:23 Ice Watch 9.3F - 12F - 5 - - - - 0 mhos 2 - None None - -
12/08/2016 18:13 Ice Watch 9.5F - 13F - 5 - - - - 0 mhos 2 - None None - -
12/08/2016 18:12 Ice Watch 9.3F - 13F - 5 - - - - 0 mhos 2 - None None - -
12/08/2016 18:03 Ice Watch 9.5F - 13F - 5 - - - - 0 mhos 2 - None None - -
12/08/2016 17:57 Ice Watch 9.3F - 13F - 5 - - - - 0 mhos 2 - None None - -
12/08/2016 17:53 Ice Watch 9.3F - 13F - 5 - - - - 0 mhos 2 - None None - -
12/08/2016 17:43 Ice Watch 9.3F - 13F - 5 - - - - 0 mhos 1 - None None - -
12/08/2016 17:42 Ice Watch 9.3F - 13F - 5 - - - - 0 mhos 1 - None None - -
12/08/2016 17:33 Ice Watch 9.1F - 13F - 5 - - - - 0 mhos 1 - None None - -
Date/Time
(MST)
Sf
Temp Chem Water Layer Surface Precipitation
Sfc Pvt Sub Frz Factor Pct Dpth DpthThk IcePct Cond Salin FI Type Intens Accum Rate
12/08/2016 17:27 Ice Watch 9.1F - 13F - 5 - - - - 0 mhos 1 - None None - -
12/08/2016 17:23 Ice Watch 9.1F - 13F - 5 - - - - 0 mhos 1 - None None - -
12/08/2016 17:13 Ice Watch 8.8F - 14F - 5 - - - - 0 mhos 1 - None None - -
12/08/2016 17:12 Ice Watch 9.0F - 14F - 5 - - - - 0 mhos 1 - None None - -
12/08/2016 17:03 Ice Watch 9.1F - 14F - 5 - - - - 0 mhos 1 - None None - -
12/08/2016 16:57 Ice Watch 9.9F - 15F - 5 - - - - 0 mhos 1 - None None - -
12/08/2016 16:52 Ice Watch 10.0F - 15F - 5 - - - - 0 mhos 1 - None None - -
12/08/2016 16:42 Ice Watch 11.1F - 15F - 5 - - - - 0 mhos 1 - None None - -
12/08/2016 16:42 Ice Watch 11.1F - 15F - 5 - - - - 0 mhos 1 - None None - -
12/08/2016 16:32 Ice Watch 12.0F - 16F - 5 - - - - 0 mhos 1 - None None - -
12/08/2016 16:27 Ice Watch 12.6F - 16F - 5 - - - - 0 mhos 1 - None None - -
12/08/2016 16:22 Ice Watch 12.9F - 16F - 5 - - - - 0 mhos 0 - None None - -
12/08/2016 16:12 Ice Watch 14.0F - 17F - 5 - - - - 0 mhos 0 - None None - -
12/08/2016 16:12 Ice Watch 14.0F - 17F - 5 - - - - 0 mhos 0 - None None - -
12/08/2016 16:02 Ice Watch 14.9F - 17F - 5 - - - - 0 mhos 0 - None None - -
Date/Time
(MST)
Sf
Temp Chem Water Layer Surface Precipitation
Sfc Pvt Sub Frz Factor Pct Dpth DpthThk IcePct Cond Salin FI Type Intens Accum Rate
12/08/2016 15:57 Ice Watch 15.3F - 17F - 5 - - - - 0 mhos 0 - None None - -
12/08/2016 15:52 Ice Watch 15.3F - 17F - 5 - - - - 0 mhos 0 - None None - -
12/08/2016 15:42 Ice Watch 15.3F - 17F - 5 - - - - 0 mhos 0 - None None - -
12/08/2016 15:42 Ice Watch 15.3F - 17F - 5 - - - - 0 mhos 0 - None None - -
12/08/2016 15:32 Ice Watch 15.1F - 18F - 5 - - - - 0 mhos 0 - None None - -
12/08/2016 15:27 Ice Watch 15.4F - 18F - 5 - - - - 0 mhos 0 - None None - -
12/08/2016 15:22 Dry 16.0F - 18F - - - - - - 0 mhos 0 - None None - -
12/08/2016 15:12 Dry 17.4F - 18F - - - - - - 0 mhos 0 - None None - -
12/08/2016 15:12 Dry 17.4F - 18F - - - - - - 0 mhos 0 - None None - -
12/08/2016 15:02 Dry 18.1F - 19F - - - - - - 0 mhos 0 - None None - -
12/08/2016 14:57 Dry 18.9F - 19F - - - - - - 0 mhos 0 - None None - -
12/08/2016 14:52 Dry 18.0F - 19F - - - - - - 0 mhos 0 - None None - -
12/08/2016 14:42 Dry 18.0F - 19F - - - - - - 0 mhos 0 - None None - -
12/08/2016 14:42 Dry 18.0F - 19F - - - - - - 0 mhos 0 - None None - -
12/08/2016 14:32 Dry 20.8F - 20F - - - - - - 0 mhos 0 - None None - -
Date/Time
(MST)
Sf
Temp Chem Water Layer Surface Precipitation
Sfc Pvt Sub Frz Factor Pct Dpth DpthThk IcePct Cond Salin FI Type Intens Accum Rate
12/08/2016 14:27 Dry 22.1F - 20F - - - - - - 0 mhos 0 - None None - -
12/08/2016 14:22 Dry 22.8F - 20F - - - - - - 0 mhos 0 - None None - -
12/08/2016 14:12 Dry 23.0F - 20F - - - - - - 0 mhos 0 - None None - -
12/08/2016 14:12 Dry 22.8F - 19F - - - - - - 0 mhos 0 - None None - -
12/08/2016 14:01 Dry 23.2F - 19F - - - - - - 0 mhos 0 - None None - -
12/08/2016 13:57 Dry 23.5F - 19F - - - - - - 0 mhos 0 - None None - -
12/08/2016 13:51 Dry 24.3F - 19F - - - - - - 0 mhos 0 - None None - -
12/08/2016 13:42 Dry 24.3F - 19F - - - - - - 0 mhos 0 - None None - -
12/08/2016 13:41 Dry 24.3F - 19F - - - - - - 0 mhos 0 - None None - -
12/08/2016 13:31 Dry 22.1F - 19F - - - - - - 0 mhos 0 - None None - -
12/08/2016 13:27 Dry 21.0F - 19F - - - - - - 0 mhos 0 - None None - -
12/08/2016 13:21 Dry 20.5F - 19F - - - - - - 0 mhos 0 - None None - -
12/08/2016 13:12 Dry 22.1F - 19F - - - - - - 0 mhos 0 - None None - -
12/08/2016 13:11 Dry 22.5F - 19F - - - - - - 0 mhos 0 - None None - -
12/08/2016 13:01 Dry 23.5F - 18F - - - - - - 0 mhos 0 - None None - -
Date/Time
(MST)
Sf
Temp Chem Water Layer Surface Precipitation
Sfc Pvt Sub Frz Factor Pct Dpth DpthThk IcePct Cond Salin FI Type Intens Accum Rate
12/08/2016 12:57 Dry 23.4F - 18F - - - - - - 0 mhos 0 - None None - -
12/08/2016 12:51 Dry 23.5F - 18F - - - - - - 0 mhos 0 - None None - -
12/08/2016 12:42 Dry 23.0F - 18F - - - - - - 0 mhos 0 - None None - -
12/08/2016 12:41 Dry 23.0F - 18F - - - - - - 0 mhos 0 - None None - -
12/08/2016 12:31 Dry 21.6F - 17F - - - - - - 0 mhos 0 - None None - -
12/08/2016 12:27 Dry 21.9F - 17F - - - - - - 0 mhos 0 - None None - -
12/08/2016 12:21 Dry 23.2F - 17F - - - - - - 0 mhos 0 - None None - -
12/08/2016 12:12 Dry 22.1F - 16F - - - - - - 0 mhos 0 - None None - -
12/08/2016 12:11 Dry 22.1F - 16F - - - - - - 0 mhos 0 - None None - -
12/08/2016 12:01 Dry 21.9F - 16F - - - - - - 0 mhos 0 - None None - -
12/08/2016 11:57 Dry 21.4F - 15F - - - - - - 0 mhos 0 - None None - -
12/08/2016 11:51 Dry 21.0F - 15F - - - - - - 0 mhos 0 - None None - -
12/08/2016 11:42 Dry 19.0F - 15F - - - - - - 0 mhos 0 - None None - -
12/08/2016 11:41 Dry 19.0F - 15F - - - - - - 0 mhos 0 - None None - -
12/08/2016 11:31 Dry 19.4F - 14F - - - - - - 0 mhos 0 - None None - -
Date/Time
(MST)
Sf
Temp Chem Water Layer Surface Precipitation
Sfc Pvt Sub Frz Factor Pct Dpth DpthThk IcePct Cond Salin FI Type Intens Accum Rate
12/08/2016 11:27 Dry 19.4F - 14F - - - - - - 0 mhos 1 - None None - -
12/08/2016 11:21 Dry 18.9F - 13F - - - - - - 0 mhos 1 - None None - -
12/08/2016 11:12 Dry 18.0F - 13F - - - - - - 0 mhos 1 - None None - -
12/08/2016 11:10 Dry 18.0F - 13F - - - - - - 0 mhos 1 - None None - -
12/08/2016 11:00 Dry 17.4F - 12F - - - - - - 0 mhos 2 - None None - -
12/08/2016 10:57 Dry 17.6F - 11F - - - - - - 0 mhos 3 - None None - -
12/08/2016 10:50 Dry 16.9F - 11F - - - - - - 0 mhos 6 - None None - -
12/08/2016 10:42 Dry 15.4F - 10F - - - - - - 0 mhos 20 - None None - -
12/08/2016 10:40 Dry 15.4F - 10F - - - - - - 0 mhos 22 - None None - -
12/08/2016 10:30 Dry 13.6F - 9F - - - - - - 0 mhos 50 - None None - -
12/08/2016 10:27 Dry 12.6F - 9F - - - - - - 0 mhos 62 - None None - -
12/08/2016 10:20 Ice Watch 11.1F - 8F - 5 - - - - 0 mhos 79 - None None - -
12/08/2016 10:12 Ice Watch 9.9F - 7F - 5 - - - - 0 mhos 109 - None None - -
12/08/2016 10:10 Ice Watch 9.7F - 7F - 5 - - - - 0 mhos 115 - None None - -
12/08/2016 10:00 Ice Watch 9.1F - 6F - 5 - - - - 0 mhos 140 - None None - -
Date/Time
(MST)
Sf
Temp Chem Water Layer Surface Precipitation
Sfc Pvt Sub Frz Factor Pct Dpth DpthThk IcePct Cond Salin FI Type Intens Accum Rate
12/08/2016 09:57 Ice Watch 8.8F - 6F - 5 - - - - 0 mhos 151 - None None - -
12/08/2016 09:50 Ice Watch 7.0F - 5F - 5 - - - - 0 mhos 181 - None None - -
12/08/2016 09:42 Ice Watch 4.8F - 4F - 5 - - - - 0 mhos 222 - None None - -
12/08/2016 09:40 Ice Watch 4.3F - 4F - 5 - - - - 0 mhos 233 - None None - -
12/08/2016 09:30 Ice Watch 1.2F - 4F - 5 - - - - 0 mhos 288 - None None - -
12/08/2016 09:27 Ice Watch 0.5F - 4F - 5 - - - - 0 mhos 302 - None None - -
12/08/2016 09:20 Ice Watch 0.1F - 4F - 5 - - - - 0 mhos 316 - None None - -
12/08/2016 09:12 Ice Watch 0.0F - 4F - 5 - - - - 0 mhos 332 - None None - -
12/08/2016 09:10 Ice Watch 0.0F - 4F - 5 - - - - 0 mhos 334 - None None - -
12/08/2016 09:00 Ice Watch -0.2F - 4F - 5 - - - - 0 mhos 353 - None None - -
12/08/2016 08:57 Ice Watch -0.2F - 4F - 5 - - - - 0 mhos 347 - None None - -
12/08/2016 08:50 Ice Watch -0.2F - 4F - 5 - - - - 0 mhos 356 - None None - -
12/08/2016 08:42 Ice Watch -0.4F - 4F - 5 - - - - 0 mhos 369 - None None - -
12/08/2016 08:40 Ice Watch -0.4F - 4F - 5 - - - - 0 mhos 372 - None None - -
12/08/2016 08:30 Ice Watch -0.4F - 4F - 5 - - - - 0 mhos 386 - None None - -
Date/Time
(MST)
Sf
Temp Chem Water Layer Surface Precipitation
Sfc Pvt Sub Frz Factor Pct Dpth DpthThk IcePct Cond Salin FI Type Intens Accum Rate
12/08/2016 08:27 Ice Watch -0.6F - 4F - 5 - - - - 0 mhos 392 - None None - -
12/08/2016 08:19 Ice Watch -0.8F - 4F - 5 - - - - 0 mhos 403 - None None - -
12/08/2016 08:12 Ice Watch -0.8F - 4F - 5 - - - - 0 mhos 411 - None None - -
12/08/2016 08:09 Ice Watch -0.8F - 4F - 5 - - - - 0 mhos 413 - None None - -
12/08/2016 07:59 Ice Watch -0.9F - 4F - 5 - - - - 0 mhos 430 - None None - -
12/08/2016 07:57 Ice Watch -0.9F - 4F - 5 - - - - 0 mhos 434 - None None - -
12/08/2016 07:49 Ice Watch -1.1F - 4F - 5 - - - - 0 mhos 462 - None None - -
12/08/2016 07:42 Ice Watch -1.3F - 4F - 5 - - - - 0 mhos 489 - None None - -
12/08/2016 07:39 Ice Watch -1.3F - 4F - 5 - - - - 0 mhos 494 - None None - -
12/08/2016 07:29 Ice Watch -1.3F - 4F - 5 - - - - 0 mhos 518 - None None - -
12/08/2016 07:27 Ice Watch -1.3F - 4F - 5 - - - - 0 mhos 523 - None None - -
12/08/2016 07:19 Ice Watch -1.3F - 4F - 5 - - - - 0 mhos 518 - None None - -
12/08/2016 07:12 Ice Watch -1.1F - 4F - 5 - - - - 0 mhos 525 - None None - -
12/08/2016 07:09 Ice Watch -0.9F - 4F - 5 - - - - 0 mhos 523 - None None - -
12/08/2016 06:59 Ice Watch -0.9F - 4F - 5 - - - - 0 mhos 540 - None None - -
Date/Time
(MST)
Sf
Temp Chem Water Layer Surface Precipitation
Sfc Pvt Sub Frz Factor Pct Dpth DpthThk IcePct Cond Salin FI Type Intens Accum Rate
12/08/2016 06:57 Ice Watch -0.9F - 4F - 5 - - - - 0 mhos 544 - None None - -
12/08/2016 06:49 Ice Watch -1.1F - 4F - 5 - - - - 0 mhos 562 - None None - -
12/08/2016 06:42 Ice Watch -1.1F - 4F - 5 - - - - 0 mhos 573 - None None - -
12/08/2016 06:39 Ice Watch -1.1F - 4F - 5 - - - - 0 mhos 576 - None None - -
12/08/2016 06:29 Ice Watch -1.3F - 4F - 5 - - - - 0 mhos 600 - None None - -
12/08/2016 06:27 Ice Watch -1.1F - 5F - 5 - - - - 0 mhos 596 - None None - -
12/08/2016 06:19 Ice Watch -1.1F - 5F - 5 - - - - 0 mhos 614 - None None - -
12/08/2016 06:12 Ice Watch -0.9F - 5F - 5 - - - - 0 mhos 621 - None None - -
12/08/2016 06:09 Ice Watch -0.9F - 5F - 5 - - - - 0 mhos 624 - None None - -
12/08/2016 05:59 Ice Watch -0.9F - 5F - 5 - - - - 0 mhos 641 - None None - -
12/08/2016 05:57 Ice Watch -0.8F - 5F - 5 - - - - 0 mhos 638 - None None - -
12/08/2016 05:49 Ice Watch -0.8F - 5F - 5 - - - - 0 mhos 651 - None None - -
12/08/2016 05:42 Ice Watch -0.6F - 5F - 5 - - - - 0 mhos 654 - None None - -
12/08/2016 05:39 Ice Watch -0.6F - 5F - 5 - - - - 0 mhos 661 - None None - -
12/08/2016 05:28 Ice Watch -0.4F - 5F - 5 - - - - 0 mhos 667 - None None - -
Date/Time
(MST)
Sf
Temp Chem Water Layer Surface Precipitation
Sfc Pvt Sub Frz Factor Pct Dpth DpthThk IcePct Cond Salin FI Type Intens Accum Rate
12/08/2016 05:27 Ice Watch -0.4F - 5F - 5 - - - - 0 mhos 667 - None None - -
12/08/2016 05:18 Ice Watch -0.4F - 5F - 5 - - - - 0 mhos 669 - None None - -
12/08/2016 05:12 Ice Watch -0.4F - 5F - 5 - - - - 0 mhos 671 - None None - -
12/08/2016 05:08 Ice Watch -0.4F - 5F - 5 - - - - 0 mhos 674 - None None - -
12/08/2016 04:58 Ice Watch -0.2F - 6F - 5 - - - - 0 mhos 673 - None None - -
12/08/2016 04:57 Ice Watch -0.2F - 6F - 5 - - - - 0 mhos 676 - None None - -
12/08/2016 04:48 Ice Watch -0.2F - 6F - 5 - - - - 0 mhos 685 - None None - -
12/08/2016 04:42 Ice Watch 0.0F - 6F - 10 - - - - 0 mhos 680 - None None - -
12/08/2016 04:38 Ice Watch 0.0F - 6F - 10 - - - - 0 mhos 685 - None None - -
12/08/2016 04:28 Ice Watch 0.1F - 6F - 10 - - - - 0 mhos 683 - None None - -
12/08/2016 04:27 Ice Watch 0.3F - 6F - 10 - - - - 0 mhos 676 - None None - -
12/08/2016 04:18 Ice Watch 0.3F - 6F - 10 - - - - 0 mhos 681 - None None - -
12/08/2016 04:12 Ice Watch 0.5F - 6F - 15 - - - - 0 mhos 674 - None None - -
12/08/2016 04:08 Ice Watch 0.5F - 6F - 15 - - - - 0 mhos 677 - None None - -
12/08/2016 03:58 Ice Watch 0.7F - 6F - 15 - - - - 0 mhos 664 - None None - -
Date/Time
(MST)
Sf
Temp Chem Water Layer Surface Precipitation
Sfc Pvt Sub Frz Factor Pct Dpth DpthThk IcePct Cond Salin FI Type Intens Accum Rate
12/08/2016 03:57 Ice Watch 0.7F - 6F - 15 - - - - 0 mhos 663 - None None - -
12/08/2016 03:48 Ice Watch 0.9F - 6F - 20 - - - - 1 mhos 660 - None None - -
12/08/2016 03:42 Ice Watch 1.2F - 7F - 20 - - - - 1 mhos 646 - None None - -
12/08/2016 03:38 Ice Watch 1.4F - 7F - 25 - - - - 1 mhos 638 - None None - -
12/08/2016 03:28 Ice Watch 1.6F - 7F - 25 - - - - 0 mhos 615 - None None - -
12/08/2016 03:27 Ice Watch 1.4F - 7F - 25 - - - - 0 mhos 620 - None None - -
12/08/2016 03:18 Ice Watch 1.4F - 7F - 15 - - - - 0 mhos 622 - None None - -
12/08/2016 03:12 Ice Watch 1.4F - 7F - 15 - - - - 0 mhos 621 - None None - -
12/08/2016 03:08 Ice Watch 1.6F - 7F - 15 - - - - 0 mhos 613 - None None - -
12/08/2016 02:58 Ice Watch 1.8F - 7F - 15 - - - - 0 mhos 611 - None None - -
12/08/2016 02:57 Ice Watch 1.8F - 7F - 15 - - - - 0 mhos 611 - None None - -
12/08/2016 02:47 Ice Watch 1.9F - 7F - 15 - - - - 0 mhos 603 - None None - -
12/08/2016 02:42 Ice Watch 1.9F - 7F - 15 - - - - 0 mhos 603 - None None - -
12/08/2016 02:37 Ice Watch 1.9F - 7F - 15 - - - - 0 mhos 603 - None None - -
Change End Date:

Copyright © 1998-2015 Vaisala, Inc.
All Rights Reserved
Send comments about the data to:
SCAN Web ® is a registered trademark of Vaisala, Inc.
SCAN Web Version 6.0